Date String (YYYY-MM-DD hh:mm:ss) UTC,Instrument flags,absolute air pressure of the measurement (hPa),sample flow rate (lpm),inlet stack bypass flow (lpm),air temperature of the measurement (°C),ambient temperature measured by the external sensor (°C),aerosol sample conditioner tube jacket temperature (°C),OPC LED temperature (°C),internal box temperature (°C),relative humidity of the measurement (%),span deviation,mass concentration of particles derived from Lorenz-Mie calculation of OPC scattering (μg/m³),mass concentration of particles derived from Lorenz-Mie calculation of OPC scattering (μg/m³),mass concentration of particles derived from Lorenz-Mie calculation of OPC scattering (μg/m³)
DateTimeUTC,F1_M11,P_M11,Q1_M11,Q2_M11,T1_M11,T2_M11,T3_M11,T4_M11,T5_M11,U1_M11,ZSPAN_M11,X0_M11,X2_M11,X1_M11
2023-06-08 23:00:00,SystemResetWarning,0829.3,5.00,000.00,029.4,026.6,000.0,037.9,030.8,26.3,0000.0,0007.43,0003.10,0002.36
2023-06-08 23:01:00,SystemResetWarning,0829.4,5.00,000.00,029.4,026.9,000.0,037.9,030.9,26.7,0000.0,0006.87,0003.08,0002.36
2023-06-08 23:02:00,SystemResetWarning,0829.3,5.00,000.00,029.4,027.3,000.0,037.9,031.0,27.2,0000.0,0006.27,0003.03,0002.35
2023-06-08 23:03:00,SystemResetWarning,0829.3,5.00,000.00,029.4,027.6,000.0,037.9,031.0,26.9,0000.0,0006.05,0003.00,0002.34
2023-06-08 23:04:00,SystemResetWarning,0829.4,5.00,000.00,029.5,027.8,000.0,037.9,031.1,27.4,0000.0,0007.26,0002.99,0002.35
2023-06-08 23:05:00,SystemResetWarning,0829.3,5.00,000.00,029.5,028.0,000.0,037.9,031.1,27.5,0000.0,0007.25,0002.98,0002.34
2023-06-08 23:06:00,SystemResetWarning,0829.3,5.00,000.00,029.5,027.9,000.0,038.0,031.2,26.8,0000.0,0007.19,0002.96,0002.34
2023-06-08 23:07:00,SystemResetWarning,0829.4,4.97,000.00,029.6,026.2,000.0,037.9,031.1,26.9,0000.0,0007.25,0002.94,0002.35
2023-06-08 23:08:00,SystemResetWarning,0829.4,5.02,000.00,029.5,025.3,000.0,037.9,031.1,26.1,0000.0,0008.11,0002.96,0002.34
2023-06-08 23:09:00,SystemResetWarning,0829.3,5.00,000.00,029.5,025.4,000.0,037.9,030.9,25.6,0000.0,0008.16,0002.99,0002.34
2023-06-08 23:10:00,SystemResetWarning,0829.4,5.00,000.00,029.4,025.8,000.0,037.9,030.7,26.0,0000.0,0008.32,0003.01,0002.35
2023-06-08 23:11:00,SystemResetWarning,0829.3,5.00,000.00,029.3,026.2,000.0,037.9,030.8,26.7,0000.0,0008.43,0003.07,0002.35
2023-06-08 23:12:00,SystemResetWarning,0829.3,5.01,000.00,029.3,026.6,000.0,037.9,030.8,26.6,0000.0,0008.96,0003.11,0002.34
2023-06-08 23:13:00,SystemResetWarning,0829.3,5.00,000.00,029.4,026.9,000.0,037.9,030.9,26.9,0000.0,0009.20,0003.14,0002.33
2023-06-08 23:14:00,SystemResetWarning,0829.3,5.00,000.00,029.4,027.3,000.0,037.9,031.0,26.9,0000.0,0009.19,0003.12,0002.32
2023-06-08 23:15:00,SystemResetWarning,0829.4,5.00,000.00,029.4,027.6,000.0,037.9,031.0,26.7,0000.0,0008.81,0003.12,0002.32
2023-06-08 23:16:00,SystemResetWarning,0829.4,5.00,000.00,029.5,027.8,000.0,037.9,031.1,26.4,0000.0,0009.28,0003.11,0002.30
2023-06-08 23:17:00,SystemResetWarning,0829.3,4.99,000.00,029.5,028.0,000.0,037.9,031.1,26.7,0000.0,0009.49,0003.12,0002.30
2023-06-08 23:18:00,SystemResetWarning,0829.3,5.00,000.00,029.5,028.1,000.0,038.0,031.2,27.2,0000.0,0009.67,0003.11,0002.30
2023-06-08 23:19:00,SystemResetWarning,0829.3,4.99,000.00,029.6,026.7,000.0,037.9,031.2,26.4,0000.0,0008.54,0003.11,0002.28
2023-06-08 23:20:00,SystemResetWarning,0829.3,5.01,000.00,029.5,025.4,000.0,037.9,031.1,26.2,0000.0,0008.22,0003.12,0002.28
2023-06-08 23:21:00,SystemResetWarning,0829.3,5.01,000.00,029.5,025.4,000.0,037.9,031.0,26.0,0000.0,0008.09,0003.12,0002.27
2023-06-08 23:22:00,SystemResetWarning,0829.3,4.99,000.00,029.4,025.7,000.0,037.9,030.8,25.5,0000.0,0008.03,0003.10,0002.26
2023-06-08 23:23:00,SystemResetWarning,0829.4,5.00,000.00,029.4,026.1,000.0,037.9,030.7,25.4,0000.0,0007.69,0003.06,0002.25
2023-06-08 23:24:00,SystemResetWarning,0829.3,5.00,000.00,029.4,026.5,000.0,037.9,030.8,26.3,0000.0,0008.43,0003.09,0002.23
2023-06-08 23:25:00,SystemResetWarning,0829.3,5.01,000.00,029.4,026.9,000.0,037.9,030.9,25.6,0000.0,0008.65,0003.15,0002.24
2023-06-08 23:26:00,SystemResetWarning,0829.4,4.99,000.00,029.4,027.2,000.0,037.9,031.0,26.1,0000.0,0008.57,0003.14,0002.23
2023-06-08 23:27:00,SystemResetWarning,0829.3,4.99,000.00,029.4,027.5,000.0,037.9,031.0,26.7,0000.0,0008.03,0003.17,0002.23
2023-06-08 23:28:00,SystemResetWarning,0829.3,4.99,000.00,029.5,027.7,000.0,037.9,031.1,26.0,0000.0,0008.04,0003.22,0002.22
2023-06-08 23:29:00,SystemResetWarning,0829.3,5.01,000.00,029.5,027.9,000.0,037.9,031.1,25.6,0000.0,0008.00,0003.26,0002.22
2023-06-08 23:30:00,SystemResetWarning,0829.4,5.01,000.00,029.5,028.1,000.0,038.0,031.2,25.5,0000.0,0007.96,0003.26,0002.23
2023-06-08 23:31:00,SystemResetWarning,0829.3,4.99,000.00,029.6,027.2,000.0,038.0,031.2,26.0,0000.0,0007.89,0003.25,0002.23
2023-06-08 23:32:00,SystemResetWarning,0829.3,4.99,000.00,029.5,025.5,000.0,037.9,031.1,26.4,0000.0,0007.90,0003.25,0002.24
2023-06-08 23:33:00,SystemResetWarning,0829.3,5.01,000.00,029.5,025.3,000.0,037.9,031.1,24.7,0000.0,0007.96,0003.26,0002.26
2023-06-08 23:34:00,SystemResetWarning,0829.3,5.00,000.00,029.4,025.6,000.0,037.9,030.8,25.1,0000.0,0008.70,0003.29,0002.27
2023-06-08 23:35:00,SystemResetWarning,0829.3,4.99,000.00,029.4,026.0,000.0,037.9,030.8,25.8,0000.0,0007.91,0003.27,0002.30
2023-06-08 23:36:00,SystemResetWarning,0829.3,5.00,000.00,029.4,026.4,000.0,037.9,030.8,27.1,0000.0,0007.56,0003.21,0002.31
2023-06-08 23:37:00,SystemResetWarning,0829.3,5.01,000.00,029.4,026.8,000.0,037.9,030.8,26.6,0000.0,0007.52,0003.20,0002.31
2023-06-08 23:38:00,SystemResetWarning,0829.4,5.01,000.00,029.4,027.1,000.0,037.9,030.9,24.9,0000.0,0007.59,0003.19,0002.32
2023-06-08 23:39:00,SystemResetWarning,0829.4,4.98,000.00,029.4,027.4,000.0,037.9,031.0,25.9,0000.0,0007.55,0003.16,0002.32
2023-06-08 23:40:00,SystemResetWarning,0829.4,5.01,000.00,029.4,027.7,000.0,037.9,031.1,25.4,0000.0,0007.36,0003.13,0002.31
2023-06-08 23:41:00,SystemResetWarning,0829.4,5.02,000.00,029.5,027.9,000.0,038.0,031.1,25.8,0000.0,0007.79,0003.14,0002.31
2023-06-08 23:42:00,SystemResetWarning,0829.4,4.99,000.00,029.5,028.0,000.0,038.0,031.2,25.8,0000.0,0008.79,0003.13,0002.31
2023-06-08 23:43:00,SystemResetWarning,0829.4,4.98,000.00,029.6,026.7,000.0,037.9,031.2,25.0,0000.0,0008.79,0003.12,0002.31
2023-06-08 23:44:00,SystemResetWarning,0829.4,5.01,000.00,029.5,025.4,000.0,037.9,031.1,24.8,0000.0,0008.91,0003.12,0002.31
2023-06-08 23:45:00,SystemResetWarning,0829.4,5.01,000.00,029.5,025.4,000.0,037.9,030.9,26.0,0000.0,0008.75,0003.14,0002.32
2023-06-08 23:46:00,SystemResetWarning,0829.4,4.99,000.00,029.4,025.7,000.0,037.9,030.8,26.1,0000.0,0008.67,0003.19,0002.32
2023-06-08 23:47:00,SystemResetWarning,0829.4,4.99,000.00,029.4,026.1,000.0,037.9,030.7,26.8,0000.0,0008.80,0003.24,0002.32
2023-06-08 23:48:00,SystemResetWarning,0829.4,5.00,000.00,029.3,026.5,000.0,037.9,030.8,26.9,0000.0,0008.82,0003.26,0002.33
2023-06-08 23:49:00,SystemResetWarning,0829.5,5.02,000.00,029.4,026.9,000.0,037.9,030.8,27.0,0000.0,0008.95,0003.29,0002.34
2023-06-08 23:50:00,SystemResetWarning,0829.4,5.00,000.00,029.4,027.2,000.0,037.9,030.9,26.2,0000.0,0009.04,0003.29,0002.35
2023-06-08 23:51:00,SystemResetWarning,0829.5,4.99,000.00,029.4,027.5,000.0,037.9,031.0,25.5,0000.0,0009.32,0003.31,0002.37
2023-06-08 23:52:00,SystemResetWarning,0829.5,4.99,000.00,029.4,027.7,000.0,037.9,031.0,26.2,0000.0,0009.98,0003.32,0002.39
2023-06-08 23:53:00,SystemResetWarning,0829.5,5.00,000.00,029.5,027.9,000.0,038.0,031.1,27.1,0000.0,0009.76,0003.34,0002.38
2023-06-08 23:54:00,SystemResetWarning,0829.5,5.01,000.00,029.5,028.1,000.0,038.0,031.1,26.6,0000.0,0010.24,0003.33,0002.38
2023-06-08 23:55:00,SystemResetWarning,0829.5,4.98,000.00,029.5,027.2,000.0,038.0,031.2,26.6,0000.0,0010.61,0003.34,0002.38
2023-06-08 23:56:00,SystemResetWarning,0829.5,5.01,000.00,029.5,025.5,000.0,037.9,031.0,26.1,0000.0,0010.10,0003.32,0002.37
2023-06-08 23:57:00,SystemResetWarning,0829.5,5.00,000.00,029.5,025.3,000.0,037.9,031.0,27.0,0000.0,0010.01,0003.27,0002.36
2023-06-08 23:58:00,SystemResetWarning,0829.5,5.01,000.00,029.4,025.5,000.0,037.9,030.8,27.0,0000.0,0010.18,0003.25,0002.38
2023-06-08 23:59:00,SystemResetWarning,0829.5,5.00,000.00,029.3,025.9,000.0,037.9,030.7,25.9,0000.0,0010.39,0003.24,0002.37
